GW5621 Weather Reports


Display with metric or nautical units.
time (UTC)temp
F
wind
direction
speed
MPH
gust
MPH
rain 1hr
in
rain 24hr
in
rain mn
in
humidity
%
barometer
mb
20260510043047 51 0 0.0 0.0 0.00 0.26 0.00 95 1011.4
20260510041550 51 0 0.0 0.0 0.00 0.26 0.00 94 1011.3
20260510040044 51 0 0.0 0.0 0.00 0.26 0.00 94 1011.3
20260510034544 52 0 0.0 0.0 0.00 0.26 0.26 94 1011.2
20260510033039 52 0 0.0 0.0 0.00 0.26 0.26 94 1011.2
20260510031604 52 0 0.0 0.0 0.00 0.26 0.26 94 1011.0
20260510030045 52 0 0.0 0.0 0.00 0.26 0.26 94 1011.1
20260510024541 51 0 0.0 0.0 0.00 0.26 0.26 94 1011.0
20260510023045 50 0 0.0 0.0 0.00 0.26 0.26 94 1010.9
20260510021541 50 0 0.0 0.0 0.00 0.26 0.26 94 1010.9
20260510020043 50 0 0.0 0.0 0.00 0.26 0.26 94 1010.8
20260510014542 50 0 0.0 0.0 0.00 0.26 0.26 93 1010.7
20260510013039 50 0 0.0 0.0 0.00 0.26 0.26 93 1010.8
20260510011545 51 0 0.0 0.0 0.00 0.26 0.26 93 1010.6
20260510010055 51 0 0.0 0.0 0.00 0.26 0.26 92 1010.4
20260510004542 51 0 0.0 1.0 0.00 0.26 0.26 92 1010.3
20260510003037 52 0 0.0 1.0 0.00 0.26 0.26 91 1010.2
20260510001545 52 0 0.0 1.0 0.00 0.26 0.26 89 1010.0
20260510000048 54 27 0.0 1.0 0.00 0.26 0.26 87 1009.9
20260509234543 56 27 0.0 1.0 0.00 0.26 0.26 83 1009.7
20260509233040 59 0 0.0 2.0 0.00 0.26 0.26 79 1009.6
20260509231552 62 0 0.0 1.0 0.00 0.26 0.26 74 1009.5
20260509230045 62 0 0.0 2.0 0.00 0.26 0.26 76 1009.7
20260509224542 61 0 0.0 2.0 0.00 0.26 0.26 78 1009.6
20260509223044 60 198 1.0 3.0 0.00 0.26 0.26 79 1009.6
20260509221539 59 254 0.0 2.0 0.00 0.26 0.26 83 1009.6
20260509220046 58 0 0.0 3.0 0.00 0.26 0.26 82 1009.7
20260509214541 58 256 0.0 2.0 0.00 0.26 0.26 85 1010.0
20260509213052 58 0 0.0 2.0 0.00 0.26 0.26 83 1009.9
20260509211604 59 207 1.0 4.0 0.00 0.26 0.26 84 1010.0
20260509210050 58 261 1.0 3.0 0.00 0.26 0.26 86 1010.1
20260509204557 56 0 0.0 2.0 0.00 0.26 0.26 88 1010.1
20260509203049 56 0 0.0 1.0 0.00 0.26 0.26 89 1010.3
20260509201540 55 150 0.0 1.0 0.00 0.26 0.26 89 1010.5
20260509200044 55 0 0.0 2.0 0.00 0.26 0.26 89 1010.6
20260509194545 54 124 0.0 1.0 0.02 0.26 0.26 90 1010.4
20260509193044 54 0 0.0 1.0 0.04 0.26 0.26 91 1010.7
20260509191543 53 0 0.0 1.0 0.05 0.26 0.26 91 1010.9
20260509190046 53 0 0.0 0.0 0.06 0.26 0.26 91 1011.4
20260509184536 53 0 0.0 0.0 0.06 0.24 0.24 91 1011.6
20260509183044 53 0 0.0 0.0 0.08 0.22 0.22 90 1011.7
20260509181550 53 0 0.0 1.0 0.09 0.21 0.21 91 1011.6
20260509180044 53 0 0.0 1.0 0.12 0.20 0.20 90 1011.5
20260509174542 53 0 0.0 3.0 0.14 0.18 0.18 90 1011.5
20260509173036 53 300 1.0 3.0 0.12 0.14 0.14 89 1011.7
20260509171535 53 325 0.0 2.0 0.10 0.11 0.11 88 1011.6
20260509170036 54 309 1.0 3.0 0.07 0.08 0.08 86 1011.8
20260509164543 55 329 2.0 4.0 0.03 0.04 0.04 84 1011.8
20260509163051 55 286 2.0 7.0 0.01 0.02 0.02 81 1011.9
20260509161540 56 325 2.0 8.0 0.00 0.01 0.01 81 1011.9
20260509160042 57 0 1.0 4.0 0.00 0.01 0.01 81 1012.0
20260509154543 57 338 0.0 2.0 0.00 0.01 0.01 81 1012.1
20260509153044 56 0 0.0 2.0 0.00 0.01 0.01 83 1012.1
20260509151538 55 0 0.0 2.0 0.00 0.01 0.01 84 1012.2
20260509150045 54 0 0.0 2.0 0.00 0.01 0.01 83 1011.8
20260509144544 54 91 0.0 2.0 0.00 0.01 0.01 83 1011.8
20260509143047 55 0 0.0 1.0 0.01 0.01 0.01 82 1011.8
20260509141545 54 0 0.0 1.0 0.01 0.01 0.01 83 1011.9
20260509140047 54 0 1.0 3.0 0.01 0.01 0.01 83 1011.9
20260509134548 54 0 0.0 3.0 0.01 0.01 0.01 84 1012.0
20260509133039 53 119 0.0 1.0 0.00 0.00 0.00 83 1011.8
20260509131536 53 78 2.0 4.0 0.00 0.00 0.00 82 1011.3
20260509130044 53 92 1.0 3.0 0.00 0.00 0.00 82 1011.5
20260509124543 53 75 1.0 3.0 0.00 0.00 0.00 81 1011.7
20260509123037 53 92 1.0 3.0 0.00 0.00 0.00 78 1011.8
20260509121539 52 96 1.0 4.0 0.00 0.00 0.00 77 1011.8
20260509120037 52 85 2.0 4.0 0.00 0.00 0.00 76 1011.9
20260509114538 52 0 1.0 3.0 0.00 0.00 0.00 77 1011.8
20260509113044 52 49 1.0 4.0 0.00 0.00 0.00 77 1011.5
20260509111539 51 82 1.0 4.0 0.00 0.00 0.00 78 1011.4
20260509110037 51 0 0.0 3.0 0.00 0.00 0.00 79 1011.7
20260509104537 50 0 0.0 5.0 0.00 0.00 0.00 80 1011.5
20260509103044 50 87 0.0 1.0 0.00 0.00 0.00 82 1011.2
20260509101544 49 0 0.0 2.0 0.00 0.00 0.00 84 1011.1
20260509100040 49 0 0.0 1.0 0.00 0.00 0.00 85 1011.3
20260509094537 48 0 0.0 0.0 0.00 0.00 0.00 86 1011.4
20260509093038 48 0 0.0 0.0 0.00 0.00 0.00 86 1011.5
20260509091537 48 0 0.0 1.0 0.00 0.00 0.00 86 1011.5
20260509090043 48 0 0.0 1.0 0.00 0.00 0.00 86 1011.7
20260509084546 48 0 0.0 1.0 0.00 0.00 0.00 85 1011.7
20260509083046 48 58 0.0 1.0 0.00 0.00 0.00 86 1011.9
20260509081537 48 0 0.0 0.0 0.00 0.00 0.00 85 1012.1
20260509080054 48 0 0.0 0.0 0.00 0.00 0.00 84 1012.1
20260509074542 49 57 0.0 1.0 0.00 0.00 0.00 84 1012.0
20260509073121 49 0 0.0 1.0 0.00 0.00 0.00 84 1011.9
20260509071542 49 0 0.0 0.0 0.00 0.00 0.00 83 1012.1
20260509070037 50 0 0.0 0.0 0.00 0.00 0.00 83 1012.2
20260509064547 50 0 0.0 0.0 0.00 0.01 0.00 83 1012.3
20260509063042 50 0 0.0 1.0 0.00 0.01 0.00 83 1012.4
20260509061550 50 0 0.0 0.0 0.00 0.01 0.00 84 1012.3
20260509060039 50 0 0.0 0.0 0.00 0.01 0.00 83 1012.2
20260509054538 51 0 0.0 0.0 0.00 0.02 0.00 83 1012.3
20260509053049 51 0 0.0 1.0 0.00 0.02 0.00 82 1012.6
20260509051553 51 75 0.0 1.0 0.00 0.02 0.00 81 1012.6
20260509050043 51 0 0.0 1.0 0.00 0.02 0.00 81 1013.2
20260509044539 51 0 0.0 3.0 0.00 0.02 0.00 80 1013.3